DW5826 Weather Reports


time (UTC)temp
F
wind
direction
speed
knots
gust
knots
rain 1hr
in
rain 24hr
in
rain mn
in
humidity
%
barometer
mb
20200531081605 70 282 4.3 8.7 0.00 0.00 0.00 93 1005.0
20200531081104 70 281 4.3 7.0 0.00 0.00 0.00 94 1005.0
20200531080604 70 288 3.5 7.0 0.00 0.00 0.00 94 1005.0
20200531080105 70 289 4.3 8.7 0.00 0.00 0.00 94 1005.0
20200531075604 70 292 5.2 8.7 0.00 0.00 0.00 94 1005.0
20200531075104 70 310 4.3 7.8 0.00 0.00 0.00 94 1005.0
20200531074603 70 324 4.3 7.0 0.00 0.00 0.00 95 1005.0
20200531074105 70 328 4.3 6.1 0.00 0.00 0.00 95 1005.0
20200531073605 69 334 2.6 7.8 0.00 0.00 0.00 95 1005.0
20200531073104 69 327 2.6 7.8 0.00 0.00 0.00 95 1004.0
20200531072604 69 350 5.2 7.8 0.00 0.00 0.00 95 1004.0
20200531072105 69 340 4.3 7.8 0.00 0.00 0.00 97 1004.0
20200531071604 69 333 1.7 2.6 0.00 0.00 0.00 97 1005.0
20200531071104 68 292 0.9 2.6 0.00 0.00 0.00 98 1005.0
20200531070604 68 338 1.7 1.7 0.00 0.00 0.00 98 1005.0
20200531070104 68 292 0.9 1.7 0.00 0.00 0.00 98 1004.0
20200531065605 67 337 0.9 1.7 0.00 0.00 0.00 98 1004.0
20200531065104 67 347 0.9 1.7 0.00 0.00 0.00 98 1004.0
20200531064604 67 338 1.7 1.7 0.00 0.00 0.00 98 1004.0
20200531064105 67 158 0.0 0.9 0.00 0.00 0.00 98 1004.0
20200531063604 66 158 0.9 1.7 0.00 0.00 0.00 98 1004.0
20200531063105 65 155 0.9 2.6 0.00 0.00 0.00 98 1004.0
20200531062604 65 158 0.9 2.6 0.00 0.00 0.00 98 1004.0
20200531062105 65 181 1.7 4.3 0.00 0.00 0.00 98 1004.0
20200531061604 64 192 2.6 4.3 0.00 0.00 0.00 98 1003.0
20200531061104 64 180 2.6 4.3 0.00 0.00 0.00 98 1003.0
20200531060604 64 194 1.7 4.3 0.00 0.00 0.00 98 1003.0
20200531060104 64 190 0.9 4.3 0.00 0.00 0.00 98 1003.0
20200531055604 64 228 2.6 4.3 0.00 0.00 0.00 98 1003.0
20200531055104 64 184 0.9 1.7 0.00 0.00 0.00 98 1003.0
20200531054604 64 180 1.7 1.7 0.00 0.00 0.00 98 1003.0
20200531054104 64 158 0.0 1.7 0.00 0.00 0.00 98 1003.0
20200531053605 64 158 0.9 1.7 0.00 0.00 0.00 98 1003.0
20200531053104 63 161 0.9 1.7 0.00 0.00 0.00 98 1003.0
20200531052605 63 202 0.9 2.6 0.00 0.00 0.00 98 1003.0
20200531052104 63 202 0.9 2.6 0.00 0.00 0.00 98 1003.0
20200531051604 63 211 0.9 2.6 0.00 0.00 0.00 98 1003.0
20200531051104 63 225 1.7 2.6 0.00 0.00 0.00 98 1003.0
20200531050604 63 202 0.9 1.7 0.00 0.00 0.00 98 1003.0
20200531050105 63 202 0.9 1.7 0.00 0.00 0.00 98 1003.0
20200531045604 63 202 0.0 1.7 0.00 0.00 0.00 98 1003.0
20200531045105 63 202 0.9 1.7 0.00 0.00 0.00 98 1003.0
20200531044604 63 205 0.9 1.7 0.00 0.00 0.00 98 1003.0
20200531044105 63 225 0.9 1.7 0.00 0.00 0.00 98 1003.0
20200531043605 63 270 0.9 2.6 0.00 0.00 0.00 98 1003.0
20200531043104 64 292 1.7 2.6 0.00 0.00 0.00 98 1003.0
20200531042604 64 315 0.9 1.7 0.00 0.00 0.00 98 1003.0
20200531042104 64 315 0.9 1.7 0.00 0.00 0.00 98 1003.0
20200531041604 64 338 0.9 1.7 0.00 0.00 0.00 98 1003.0
20200531041104 64 338 0.9 1.7 0.00 0.00 0.00 98 1003.0
20200531040604 64 327 0.9 1.7 0.00 0.00 0.00 98 1003.0
20200531040105 64 292 0.9 1.7 0.00 0.00 0.00 98 1003.0
20200531035604 64 274 0.9 1.7 0.00 0.00 0.00 98 1003.0
20200531035105 64 248 0.0 1.7 0.00 0.00 0.00 98 1003.0
20200531034604 64 248 0.9 1.7 0.00 0.00 0.00 98 1004.0
20200531034104 64 267 0.0 1.7 0.00 0.00 0.00 98 1004.0
20200531033604 64 292 0.9 1.7 0.00 0.00 0.00 98 1004.0
20200531033105 64 270 0.9 1.7 0.00 0.00 0.00 98 1003.0
20200531032605 64 292 0.9 2.6 0.00 0.00 0.00 98 1003.0
20200531032104 64 270 0.9 2.6 0.00 0.00 0.00 98 1003.0
20200531031604 64 286 0.9 1.7 0.00 0.00 0.00 98 1003.0
20200531031104 64 235 0.9 1.7 0.00 0.00 0.00 98 1003.0
20200531030604 64 202 0.9 1.7 0.00 0.00 0.00 98 1003.0
20200531030104 64 202 0.9 1.7 0.00 0.00 0.00 98 1004.0
20200531025604 64 202 0.9 2.6 0.00 0.00 0.00 98 1004.0
20200531025104 64 202 1.7 2.6 0.00 0.00 0.00 98 1004.0
20200531024604 64 202 1.7 2.6 0.00 0.00 0.00 98 1004.0
20200531024104 64 181 1.7 2.6 0.00 0.00 0.00 98 1004.0
20200531023604 64 202 1.7 2.6 0.00 0.00 0.00 98 1004.0
20200531023105 64 166 1.7 2.6 0.00 0.00 0.00 98 1004.0
20200531022605 64 180 0.9 1.7 0.00 0.00 0.00 98 1004.0
20200531022104 64 248 0.9 1.7 0.00 0.00 0.00 98 1004.0
20200531021604 64 248 0.9 2.6 0.00 0.00 0.00 98 1004.0
20200531021104 64 248 1.7 2.6 0.00 0.00 0.00 98 1004.0
20200531020604 64 225 0.0 2.6 0.00 0.00 0.00 98 1004.0
20200531020104 64 225 0.9 2.6 0.00 0.00 0.00 98 1005.0
20200531015605 64 158 1.7 2.6 0.00 0.00 0.00 98 1005.0
20200531015104 64 180 1.7 1.7 0.00 0.00 0.00 98 1005.0
20200531014604 64 202 0.9 1.7 0.00 0.00 0.00 98 1004.0
20200531014104 65 180 1.7 1.7 0.00 0.00 0.00 97 1004.0
20200531013604 65 180 0.0 1.7 0.00 0.00 0.00 97 1004.0
20200531013104 65 180 1.7 1.7 0.00 0.00 0.00 96 1005.0
20200531012604 65 295 0.0 0.9 0.00 0.00 0.00 96 1005.0
20200531012105 65 22 0.0 1.7 0.00 0.00 0.00 96 1005.0
20200531011604 65 22 0.0 1.7 0.00 0.00 0.00 96 1006.0
20200531011105 65 15 1.7 1.7 0.00 0.00 0.00 96 1006.0
20200531010604 65 308 0.9 1.7 0.00 0.00 0.00 96 1006.0
20200531010105 65 315 1.7 1.7 0.00 0.00 0.00 96 1005.0
20200531005604 65 14 0.9 1.7 0.00 0.00 0.00 96 1005.0
20200531005105 65 292 0.9 1.7 0.00 0.00 0.00 96 1005.0
20200531004604 65 235 0.9 1.7 0.00 0.00 0.00 96 1004.0
20200531004105 65 180 0.0 1.7 0.00 0.00 0.00 95 1004.0
20200531003604 65 180 0.9 1.7 0.00 0.00 0.00 95 1004.0
20200531003104 65 158 0.0 2.6 0.00 0.00 0.00 95 1005.0
20200531002605 65 158 0.0 2.6 0.00 0.00 0.00 95 1005.0
20200531002104 66 158 1.7 2.6 0.00 0.00 0.00 95 1005.0
20200531001604 66 175 0.9 1.7 0.00 0.00 0.00 94 1005.0
20200531001105 66 178 1.7 1.7 0.00 0.00 0.00 94 1005.0
20200531000604 66 270 0.9 0.9 0.00 0.00 0.00 94 1005.0
20200531000104 66 248 0.9 0.9 0.00 0.00 0.00 94 1005.0
20200530235605 66 225 0.9 1.7 0.00 0.00 0.00 94 1005.0
20200530235105 66 158 0.9 1.7 0.00 0.00 0.00 94 1005.0
20200530234605 66 180 0.9 1.7 0.00 0.00 0.00 94 1006.0
20200530234105 66 202 0.9 1.7 0.00 0.00 0.00 93 1006.0
20200530233604 66 270 0.9 1.7 0.00 0.00 0.00 93 1006.0
20200530233105 66 292 1.7 1.7 0.00 0.00 0.00 93 1006.0
20200530232605 66 315 0.9 1.7 0.00 0.00 0.00 93 1006.0
20200530232104 66 248 1.7 1.7 0.00 0.00 0.00 93 1006.0
20200530231605 66 202 0.0 0.9 0.00 0.00 0.00 92 1006.0
20200530231104 66 202 0.0 0.9 0.00 0.00 0.00 92 1006.0
20200530230604 67 202 0.9 1.7 0.00 0.00 0.00 92 1006.0
20200530230104 67 202 0.9 1.7 0.00 0.00 0.00 92 1006.0
20200530225605 67 202 0.9 1.7 0.00 0.00 0.00 92 1006.0
20200530225104 67 180 0.9 1.7 0.00 0.00 0.00 91 1006.0
20200530224604 67 180 1.7 1.7 0.00 0.00 0.00 91 1006.0
20200530224104 67 259 0.0 1.7 0.00 0.00 0.00 91 1006.0
20200530223604 67 248 0.9 1.7 0.00 0.00 0.00 91 1006.0
20200530223105 67 180 0.9 0.9 0.00 0.00 0.00 91 1006.0
20200530222604 67 158 0.0 1.7 0.00 0.00 0.00 91 1006.0
20200530222104 67 158 0.9 1.7 0.00 0.00 0.00 90 1006.0
20200530221604 67 158 0.0 1.7 0.00 0.00 0.00 90 1006.0
20200530221104 67 158 0.9 1.7 0.00 0.00 0.00 90 1006.0
20200530220604 68 158 1.7 1.7 0.00 0.00 0.00 89 1006.0
20200530220105 68 158 0.9 1.7 0.00 0.00 0.00 89 1006.0
20200530215604 68 159 0.9 1.7 0.00 0.00 0.00 88 1006.0
20200530215104 68 135 0.0 0.9 0.00 0.00 0.00 87 1006.0
20200530214604 68 112 0.9 0.9 0.00 0.00 0.00 87 1006.0
20200530214105 68 22 0.0 1.7 0.00 0.00 0.00 86 1006.0
20200530213604 68 357 0.9 1.7 0.00 0.00 0.00 86 1006.0
20200530213104 68 315 0.9 1.7 0.00 0.00 0.00 85 1006.0
20200530212604 68 315 0.9 0.9 0.00 0.00 0.00 85 1006.0
20200530212105 68 315 0.9 1.7 0.00 0.00 0.00 85 1006.0
20200530211604 68 315 0.9 1.7 0.00 0.00 0.00 85 1006.0
20200530211105 68 315 1.7 1.7 0.00 0.00 0.00 85 1006.0
20200530210604 69 315 1.7 1.7 0.00 0.00 0.00 85 1006.0
20200530210104 69 338 0.9 1.7 0.00 0.00 0.00 85 1006.0
20200530205604 69 338 0.9 1.7 0.00 0.00 0.00 85 1006.0
20200530205104 69 338 0.9 1.7 0.00 0.00 0.00 84 1006.0
20200530204604 69 3 0.0 1.7 0.00 0.00 0.00 85 1006.0
20200530204104 69 45 0.9 1.7 0.00 0.00 0.00 85 1006.0
20200530203604 69 22 0.9 1.7 0.00 0.00 0.00 84 1006.0
20200530203101 69 22 0.9 2.6 0.00 0.00 0.00 84 1006.0
20200530202602 69 53 1.7 2.6 0.00 0.00 0.00 85 1006.0
20200530202101 69 37 1.7 2.6 0.00 0.00 0.00 84 1006.0
20200530201602 69 1 0.9 1.7 0.00 0.00 0.00 84 1006.0
20200530201101 70 53 1.7 2.6 0.00 0.00 0.00 84 1006.0
20200530200601 70 45 2.6 2.6 0.00 0.00 0.00 84 1006.0
20200530200102 70 29 1.7 2.6 0.00 0.00 0.00 84 1006.0
20200530195601 70 90 1.7 4.3 0.00 0.00 0.00 84 1006.0
20200530195102 70 40 1.7 4.3 0.00 0.00 0.00 83 1006.0
20200530194601 70 30 1.7 4.3 0.00 0.00 0.00 82 1006.0
20200530194102 71 94 1.7 4.3 0.00 0.00 0.00 82 1006.0
20200530193601 70 48 2.6 4.3 0.00 0.00 0.00 82 1006.0
20200530193101 71 25 2.6 4.3 0.00 0.00 0.00 81 1006.0
20200530192601 71 29 2.6 4.3 0.00 0.00 0.00 81 1006.0
20200530192101 71 45 2.6 4.3 0.00 0.00 0.00 81 1006.0
20200530191601 71 61 2.6 5.2 0.00 0.00 0.00 81 1006.0
20200530191101 71 23 4.3 5.2 0.00 0.00 0.00 81 1006.0
20200530190601 71 30 2.6 4.3 0.00 0.00 0.00 81 1006.0
20200530190101 72 38 2.6 4.3 0.00 0.00 0.00 80 1006.0
20200530185602 72 25 2.6 4.3 0.00 0.00 0.00 79 1006.0
20200530185101 72 22 1.7 4.3 0.00 0.00 0.00 79 1006.0
20200530184601 72 15 2.6 4.3 0.00 0.00 0.00 79 1006.0
20200530184101 73 43 1.7 5.2 0.00 0.00 0.00 78 1006.0
20200530183601 73 25 2.6 6.1 0.00 0.00 0.00 78 1006.0
20200530183101 73 20 4.3 6.1 0.00 0.00 0.00 79 1006.0
20200530182601 73 22 4.3 6.1 0.00 0.00 0.00 79 1006.0
20200530182102 73 22 3.5 5.2 0.00 0.00 0.00 79 1006.0
20200530181602 74 30 4.3 5.2 0.00 0.00 0.00 78 1006.0
20200530181101 73 349 2.6 4.3 0.00 0.00 0.00 78 1006.0
20200530180602 73 25 2.6 4.3 0.00 0.00 0.00 78 1006.0
20200530180101 74 6 1.7 5.2 0.00 0.00 0.00 78 1006.0
20200530175601 74 319 2.6 5.2 0.00 0.00 0.00 78 1006.0
20200530175101 74 86 2.6 5.2 0.00 0.00 0.00 78 1006.0
20200530174601 73 330 4.3 6.1 0.00 0.00 0.00 79 1006.0
20200530174102 73 356 5.2 7.0 0.00 0.00 0.00 79 1006.0
20200530173601 73 334 4.3 7.0 0.00 0.00 0.00 79 1006.0
20200530173101 73 327 5.2 6.1 0.00 0.00 0.00 79 1006.0
20200530172601 73 19 4.3 6.1 0.00 0.00 0.00 79 1006.0
20200530172102 73 356 5.2 6.1 0.00 0.00 0.00 78 1006.0
20200530171601 74 343 2.6 6.1 0.00 0.00 0.00 79 1006.0
20200530171101 74 342 3.5 7.0 0.00 0.00 0.00 79 1006.0
20200530170601 74 12 3.5 7.0 0.00 0.00 0.00 80 1006.0
20200530170102 74 338 4.3 7.0 0.00 0.00 0.00 80 1006.0
20200530165601 74 337 3.5 7.0 0.00 0.00 0.00 80 1006.0
20200530165101 73 318 4.3 7.0 0.00 0.00 0.00 80 1006.0
20200530164602 73 9 5.2 7.0 0.00 0.00 0.00 80 1005.0
20200530164101 73 338 5.2 8.7 0.00 0.00 0.00 80 1005.0
20200530163601 73 8 5.2 8.7 0.00 0.00 0.00 80 1005.0
20200530163101 73 349 5.2 8.7 0.00 0.00 0.00 80 1006.0
20200530162601 73 330 5.2 10.4 0.00 0.00 0.00 80 1006.0
20200530162101 73 322 6.1 10.4 0.00 0.00 0.00 79 1006.0
20200530161601 74 315 6.1 10.4 0.00 0.00 0.00 78 1005.0
20200530161102 74 8 6.1 7.8 0.00 0.00 0.00 78 1005.0
20200530160602 75 17 4.3 7.8 0.00 0.00 0.00 77 1005.0
20200530160101 74 29 4.3 7.8 0.00 0.00 0.00 77 1005.0
20200530155602 74 26 6.1 8.7 0.00 0.00 0.00 78 1005.0
20200530155101 74 23 6.1 8.7 0.00 0.00 0.00 77 1005.0
20200530154601 74 352 4.3 8.7 0.00 0.00 0.00 77 1006.0
20200530154101 74 13 7.0 8.7 0.00 0.00 0.00 77 1006.0
20200530153601 74 355 5.2 11.3 0.00 0.00 0.00 77 1006.0
20200530153102 75 12 5.2 11.3 0.00 0.00 0.00 77 1006.0
20200530152602 75 25 6.1 10.4 0.00 0.00 0.00 77 1006.0
20200530152101 75 27 6.1 11.3 0.00 0.00 0.00 75 1006.0
20200530151602 74 15 7.8 12.2 0.00 0.00 0.00 76 1006.0
20200530151101 74 6 6.1 12.2 0.00 0.00 0.00 76 1006.0
20200530150601 74 22 7.0 12.2 0.00 0.00 0.00 76 1006.0
20200530150101 74 34 8.7 12.2 0.00 0.00 0.00 76 1006.0
20200530145602 74 30 7.8 12.2 0.00 0.00 0.00 77 1006.0
20200530145101 74 357 6.1 11.3 0.00 0.00 0.00 76 1006.0
20200530144601 74 348 7.0 12.2 0.00 0.00 0.00 75 1006.0
20200530144101 74 15 7.8 12.2 0.00 0.00 0.00 75 1006.0
20200530143602 74 16 7.8 11.3 0.00 0.00 0.00 75 1006.0
20200530143101 74 18 7.0 11.3 0.00 0.00 0.00 73 1006.0
20200530142602 74 18 7.8 13.0 0.00 0.00 0.00 72 1006.0
20200530142101 75 22 7.8 13.0 0.00 0.00 0.00 72 1006.0
20200530141601 75 17 5.2 12.2 0.00 0.00 0.00 72 1006.0
20200530141101 75 9 8.7 12.2 0.00 0.00 0.00 71 1006.0
20200530140601 75 12 7.8 10.4 0.00 0.00 0.00 70 1006.0
20200530140101 75 0 6.1 10.4 0.00 0.00 0.00 71 1006.0
20200530135601 75 35 7.8 11.3 0.00 0.00 0.00 72 1006.0
20200530135101 75 12 7.0 11.3 0.00 0.00 0.00 71 1006.0
20200530134602 75 13 7.8 11.3 0.00 0.00 0.00 70 1006.0
20200530134102 75 8 6.1 11.3 0.00 0.00 0.00 70 1006.0
20200530133601 76 20 5.2 11.3 0.00 0.00 0.00 70 1006.0
20200530133101 76 21 6.1 11.3 0.00 0.00 0.00 69 1007.0
20200530132601 76 31 6.1 10.4 0.00 0.00 0.00 69 1007.0
20200530132101 76 352 4.3 12.2 0.00 0.00 0.00 70 1007.0
20200530131602 75 357 5.2 12.2 0.00 0.00 0.00 70 1007.0
20200530131101 75 30 7.0 13.0 0.00 0.00 0.00 71 1007.0
20200530130601 75 359 5.2 13.0 0.00 0.00 0.00 71 1007.0
20200530130102 76 22 5.2 13.0 0.00 0.00 0.00 69 1007.0
20200530125601 75 3 3.5 8.7 0.00 0.00 0.00 70 1007.0
20200530125101 76 338 5.2 8.7 0.00 0.00 0.00 68 1007.0
20200530124601 75 336 5.2 10.4 0.00 0.00 0.00 68 1007.0
20200530124101 75 28 5.2 10.4 0.00 0.00 0.00 69 1007.0
20200530123602 75 22 5.2 10.4 0.00 0.00 0.00 68 1007.0
20200530123101 75 12 5.2 10.4 0.00 0.00 0.00 67 1007.0
20200530122602 74 14 7.0 10.4 0.00 0.00 0.00 68 1007.0
20200530122102 74 21 7.8 10.4 0.00 0.00 0.00 67 1007.0
20200530121602 75 0 4.3 11.3 0.00 0.00 0.00 68 1007.0
20200530121102 75 6 7.8 11.3 0.00 0.00 0.00 67 1007.0
20200530120601 75 15 7.0 10.4 0.00 0.00 0.00 64 1007.0
20200530120101 76 1 7.0 11.3 0.00 0.00 0.00 61 1006.0
20200530115601 77 24 6.1 11.3 0.00 0.00 0.00 59 1006.0
20200530115102 77 56 5.2 11.3 0.00 0.00 0.00 58 1006.0
20200530114602 77 82 5.2 11.3 0.00 0.00 0.00 59 1007.0
20200530114101 77 23 5.2 11.3 0.00 0.00 0.00 59 1007.0
20200530113601 77 40 4.3 7.0 0.00 0.00 0.00 57 1007.0
20200530113101 78 75 4.3 7.0 0.00 0.00 0.00 57 1008.0
20200530112601 77 32 2.6 10.4 0.00 0.00 0.00 59 1008.0
20200530112101 77 28 5.2 10.4 0.00 0.00 0.00 60 1008.0
20200530111601 76 55 5.2 10.4 0.00 0.00 0.00 60 1007.0
20200530111102 77 57 5.2 8.7 0.00 0.00 0.00 59 1007.0
20200530110602 76 96 4.3 7.8 0.00 0.00 0.00 62 1007.0
20200530105604 77 60 3.5 8.7 0.00 0.00 0.00 60 1007.0
20200530105104 77 46 6.1 8.7 0.00 0.00 0.00 60 1007.0
20200530104604 77 78 5.2 8.7 0.00 0.00 0.00 59 1007.0
20200530104104 77 73 4.3 8.7 0.00 0.00 0.00 61 1007.0
20200530103604 77 63 5.2 8.7 0.00 0.00 0.00 61 1007.0
20200530103105 77 60 4.3 8.7 0.00 0.00 0.00 62 1007.0
20200530102604 77 82 5.2 8.7 0.00 0.00 0.00 62 1007.0
20200530102104 77 22 5.2 8.7 0.00 0.00 0.00 62 1007.0
20200530101604 77 72 5.2 7.0 0.00 0.00 0.00 60 1006.0
20200530101104 78 48 2.6 7.8 0.00 0.00 0.00 61 1006.0
20200530100603 76 328 2.6 7.8 0.00 0.00 0.00 66 1006.0
20200530100104 76 24 4.3 7.8 0.00 0.00 0.00 64 1007.0
20200530095604 77 5 4.3 6.1 0.00 0.00 0.00 63 1007.0
20200530095104 77 58 2.6 5.2 0.00 0.00 0.00 62 1007.0
20200530094604 76 128 1.7 5.2 0.00 0.00 0.00 65 1007.0
20200530094104 75 8 3.5 5.2 0.00 0.00 0.00 66 1007.0
20200530093604 75 345 3.5 5.2 0.00 0.00 0.00 66 1007.0
20200530093104 76 22 2.6 4.3 0.00 0.00 0.00 66 1007.0
20200530092604 76 312 0.9 2.6 0.00 0.00 0.00 68 1007.0
20200530092104 75 41 0.9 4.3 0.00 0.00 0.00 68 1007.0
20200530091605 74 252 0.9 4.3 0.00 0.00 0.00 69 1007.0
20200530091106 74 297 1.7 2.6 0.00 0.00 0.00 68 1007.0